Volver al catálogo

STARLINK-37133

ActivoComunicacionesVLEO
NORAD 68265·PAYLOAD·🇺🇸 United States

Lanzado Mar 19, 2026 desde Vandenberg Space Force Base

Loading…

Próximos Pases (próximas 24 horas)

TLE

ActualizadoSource: CelesTrak SupGP

Época: Sep 14, 2026, 21:07 UTC

1 68265C 26055D   26257.88034722 -.00050013  00000+0 -14771-2 0  2570
2 68265  53.1570 157.8047 0000837  98.0534 306.4983 15.34428465    15

Sigue STARLINK-37133 en tiempo real con AllMySat

Download on the App Store